星链-1310 (STARLINK-1310 )

导读 | 豆包AI

STARLINK-1310是美国太空探索技术公司Starlink卫星互联网项目的卫星,于2020年3月18日发射升空,属于Starlink星座的早期组网卫星。它运行在近地轨道,承担卫星互联网信号传输任务,为全球偏远地区、海洋空域等提供互联网接入服务,助力SpaceX构建大规模低轨卫星通信星座。

基本信息
目录编号:
45378
目录名称:
STARLINK-1310
国际标识:
2020-019U
轨道中心:
EARTH
卫星名称:
星链-1310
卫星全名:
星链-1310 (STARLINK-1310 )
卫星状态:
已陨落 最后检测时间 2024-07-27
发射日期:
2020-03-18 UTC
国别 :
美国 (US)
星等 :
--
轨道信息
数据来源 国际轨道数据
星历时间: 2024-07-27T07:38:28+0800
轨道信息已过期642天
半长轴: 6560.294km
偏心率: 0.0002128
轨道倾角: 53.025°
近地点辐角 309.649°
升交点赤经 226.506°
平近点角 155.914°
近地点: 180.762km
远地点: 183.556km
周期: 88.134分钟
每日圈数: 16.338713
详细信息
固有亮度:
5
最大亮度:
2.5
卫星平台:
Starlink V1.0
覆盖范围:
全球
运营商:
太空探索技术公司
运营商所在国:
美国
制造商(研发单位):
太空探索技术公司
制造商所在国:
美国
使用方式:
暂无
卫星简介
星链(Starlink)计划是由太空探索技术公司(SpaceX)提出的一个巨型低轨卫星互联网星座项目,计划在2019年至2024年间在太空搭建由约1.2万颗卫星组成的“星链”网络,其中1584颗将部署在地球上空550千米处的近地轨道,并从2020年开始工作。该卫星仍在工作。